STARLINK-3068, 49154

Orbit data source: Space-Track

STARLINK-3068, 49154 is a payload satellite owned by SpaceX/Seattle (US) in LEO that was launched on Tue, 14 Sep 2021 UTC via an FALCON 9 launch vehicle from the Air Force Western Test Range (AFWTR). Payload-class satellites include a variety of spacecraft equipped with specific instruments for various scientific and technological missions. These include communications satellites like Starlink; space stations such as the ISS; scientific satellites like the Hubble; Earth observation satellites from companies like Planet Labs, Umbra, and HawkEye 360; GPS; miniature CubeSats for education and research; and military/defense satellites.

Loading next visibility...
Identifier
49154, 2021-082AA
Orbit
LEO
Country
Flag of USUS
Related business
Manufacturer
SpaceX/Seattle
Mission
Operational Commercial Communications
Bus & Motor
STARLINK, Unknown motor
Mass
297 kg wet, ~275 kg dry
Launch date (UTC)
2021-09-14 (4 years ago)
Launch vehicle
FALCON 9
Launch site
Air Force Western Test Range (AFWTR)
Object type
Payload
Rocket body
Debris
Shape & HBR
Box + 1 Pan, 10.1 m
Radar Cross Section
13.562 m², Large (>1 m²)

Expand to show TLE details & history
Last TLE update: 22 hours ago

TLE from 22 hours ago
0 STARLINK-3068
1 49154U 21082AA  26071.73246054 -.00000571  00000-0 -40939-4 0  9997
2 49154  69.9980 267.5643 0002894 271.8743  88.2084 14.97523136247985
Epoch: 2026-03-12T17:34Z
TLE epoch observation values (Epoch: 2026-03-12T17:34:44.590Z)
Latitude
-0.00005°
Longitude
-166.49963°
Altitude
576.913 km
Speed
7.573 km/s
True Right ascension
17h 50m 15s
True Declination
0° 00' 00"
Sunlit
Object was in daylight at epoch
Visualization orbit readout
Latitude
Unknown
Longitude
Unknown
Altitude
Unknown
Speed
Unknown
Apparent Right ascension
Unknown
Apparent Declination
Unknown
Sunlit
N/A
Visualization observer readout
Local Sidereal Time
20:02:11
Azimuth
Unknown
Elevation
Unknown
Doppler factor
Unknown
Orbital elements
Apogee altitude
574.513 km
Perigee altitude
570.49 km
Semi-major axis
6,950.638 km
Eccentricity
0.00029
Inclination
69.998°
RAAN
267.5643°
Arg. of periapsis
271.8743°
True anomaly
88.24155°
Mean anomaly
88.2084°
Eccentric anomaly
88.22497°
Mean motion
3.74547 °/min
Orbital period
96.12 mins
BSTAR
-0.000040939
Loading maneuver chart data...
Computing Atmospheric mass density...

Documentation

Showing up to 5 results
|